Location: Acheville
(50.3840°N, 2.8827°E)
Time: 14:57:18
(UTC+00:00)

Cosmos 614 Rocket - Pass Details

Date: 24 October 2021
Orbit: 733 x 763 km, 74.1° (Epoch: 27 November)

Event Time Altitude Azimuth Distance (km) Brightness Sun altitude
Rises 18:37:56 0° 333° (NNW) 3,175 7.6 -19.6°
Reaches altitude 10° 18:40:18 10° 330° (NNW) 2,250 6.9 -20.0°
Maximum altitude 18:45:18 59° 252° (WSW) 850 4.4 -20.8°
Drops below altitude 10° 18:50:17 10° 173° (S) 2,247 6.3 -21.6°
Enters shadow 18:51:35 - 171° (S) 2,745 6.7 -21.8°
